Regional Weather Roundup
Issued by NWS

Home | Current Version | Previous Version | Graphics & Text | Print | Product List | Glossary On
Versions: 1 2 3 4 5 6 7 8 9 10 11 12 13 14 15 16 17 18 19 20 21 22 23 24 25 26 27 28 29 30 31 32 33 34 35 36 37 38 39 40 41 42 43 44 45 46 47 48 49 50
000
ASUS43 KIND 230959
RWRIN

WEATHER ROUNDUP FOR INDIANA
NATIONAL WEATHER SERVICE INDIANAPOLIS IN
500 AM EST THU FEB 23 2017

NOTE: "FAIR" INDICATES FEW OR NO CLOUDS BELOW 12,000 FEET WITH NO
SIGNIFICANT WEATHER AND/OR OBSTRUCTIONS TO VISIBILITY.

* - STATION DOES NOT REPORT WEATHER SUCH AS PRECIPITATION OR FOG.

+ - STATION NOT QUALITY CONTROLLED BY THE NATIONAL WEATHER SERVICE.
    USE DATA WITH CAUTION...ESPECIALLY DEWPOINT AND RELATIVE
    HUMIDITY OBSERVATIONS.

INZ001>003-010>013-019-020-231100-
NORTHWEST INDIANA

CITY           SKY/WX    TMP DP  RH WIND       PRES   REMARKS
KNOX *+        CLEAR     50  37  62 SW8       29.69S
LA PORTE +     CLEAR     48  48  99 W5        29.70R FOG
MICHIGAN CITY+ CLEAR     54  48  82 W7        29.70R
MONTICELLO +   CLEAR     53  51  92 SW7       29.72R
RENSSELAER +   CLEAR     50  48  93 SW6       29.71S
VALPARAISO     CLEAR     49  49 100 SW5       29.70R FOG

$$

LMZ046-743>745-231100-
SOUTHERN LAKE MICHIGAN

STATION/POSITION TIME  TEMP    WIND        PRES    WAVE
                       AIR SEA DIR/SP/G            HT
                 (UTC) (F)     (DEG/KT/KT) (MB)    (FT)
BURNS HARBOR     0940   51     260/ 14/ 15 1006.1R
MICHIGAN CITY    0930   49     220/ 16/ 17   N/A

$$

INZ004-005-014>016-021>024-231100-
NORTH CENTRAL INDIANA

CITY           SKY/WX    TMP DP  RH WIND       PRES   REMARKS
GOSHEN         PTCLDY    54  50  86 SW10      29.69R
SOUTH BEND     CLEAR     51  50  96 SW10      29.68S
WARSAW +       CLEAR     54  52  94 SW9       29.69S

$$

INZ006>009-017-018-025>027-231100-
NORTHEAST INDIANA

CITY           SKY/WX    TMP DP  RH WIND       PRES   REMARKS
ANGOLA *+      PTCLDY    55  46  71 W9        29.67S
AUBURN +       CLEAR     55  52  88 SW8       29.70R
FORT WAYNE     PTCLDY    56  52  86 SW13      29.71R
KENDALLVILLE + CLOUDY    55  53  91 W13       29.68S

$$

INZ028-029-035-036-043>045-051>053-231100-
WEST CENTRAL INDIANA

CITY           SKY/WX    TMP DP  RH WIND       PRES   REMARKS
LAFAYETTE      CLEAR     51  51 100 W6        29.73R
TERRE HAUTE    PTCLDY    57  53  86 S6        29.76R

$$

INZ030>032-037>040-046>048-054>057-064-065-231100-
CENTRAL INDIANA

CITY           SKY/WX    TMP DP  RH WIND       PRES   REMARKS
CP ATTERBURY + PTCLDY    54  50  87 CALM      29.78S
FRANKFORT +    PTCLDY    56  54  91 SW8       29.75S
GREENWOOD *+   PTCLDY    56  55  97 S5        29.77S
INDIANAPOLIS   MOCLDY    57  54  89 S12       29.76R
-EAGLE CREEK   MOCLDY    54  52  93 S6        29.75S
KOKOMO +       PTCLDY    54  52  93 SW10      29.73S
MT COMFORT *+  PTCLDY    54  52  94 S8        29.76S
SHELBYVILLE    PTCLDY    57  52  83 S10       29.76S

$$

INZ033-034-041-042-049-050-058-059-231100-
EAST CENTRAL INDIANA

CITY           SKY/WX    TMP DP  RH WIND       PRES   REMARKS
MUNCIE         CLEAR     59  54  83 SW12      29.74S

$$

INZ060-061-067>069-081>083-085>088-231100-
SOUTHWEST INDIANA

CITY           SKY/WX    TMP DP  RH WIND       PRES   REMARKS
EVANSVILLE     CLEAR     57  53  86 CALM      29.79S
HUNTINGBURG *+ PTCLDY    56  54  93 S5        29.80S

$$

INZ062-063-066-070>080-084-089>092-231100-
SOUTH CENTRAL AND SOUTHEAST INDIANA

CITY           SKY/WX    TMP DP  RH WIND       PRES   REMARKS
BLOOMINGTON    MOCLDY    60  54  80 SW13      29.77S
MADISON *+     CLOUDY    57  54  88 S6        29.83S

$$





USA.gov is the U.S. government's official web portal to all federal, state and local government web resources and services.